Weather History for KGFK - July, 2013

Change the Weather History Date:

Friday, July 12, 2013

  Actual Average Record
Temperature  
Mean Temperature 76 °F 69 °F  
Max Temperature 86 °F 81 °F 95 °F (2006)
Min Temperature 65 °F 56 °F 43 °F (1941)
Degree Days  
Heating Degree Days 0 1  
Month to date heating degree days 0 13  
Since 1 June heating degree days 77 116  
Since 1 July heating degree days 0 13  
Cooling Degree Days 11 5  
Month to date cooling degree days 95 50  
Year to date cooling degree days 217 142  
Since 1 June cooling degree days 208 125  
Growing Degree Days 25 (Base 50)    
Moisture  
Dew Point 68 °F    
Average Humidity 81    
Maximum Humidity 100    
Minimum Humidity 61    
Precipitation  
Precipitation 1.04 in 0.11 in 1.58 in (1965)
Month to date precipitation 1.29 1.38  
Year to date precipitation 12.56 10.58  
Snow  
Snow 0.00 in 0.00 in - ()
Month to date snowfall 0.0 0.0  
Since 1 June snowfall 0.0 0.0  
Since 1 July snowfall 0.0 0.0  
Snow Depth 0.00 in    
Sea Level Pressure  
Sea Level Pressure 29.72 in    
Wind  
Wind Speed 9 mph (SSW)    
Max Wind Speed 26 mph    
Max Gust Speed 38 mph    
Visibility 7 miles    
Events Fog , Rain , Thunderstorm    
T = Trace of Precipitation, MM = Missing Value Source: NWS Daily Summary

Daily Weather History Graph

Daily Weather History Graph

Search for Another Location

Airport or City:

Trip Planner

Search our weather history database for the weather conditions in past years. The results will help you decide how hot, cold, wet, or windy it might be!

Date:

Astronomy

Jul. 12, 2013 Rise Set
Actual Time 5:42 AM CDT 9:25 PM CDT
Civil Twilight 5:02 AM CDT 10:05 PM CDT
Nautical Twilight 4:09 AM CDT 10:58 PM CDT
Astronomical Twilight 2:51 AM CDT 12:14 AM CDT
Moon 10:24 AM CDT (7/12) 11:10 PM CDT (7/12)
Length of Visible Light 17h 02m
Length of Day
15h 43m
Waxing Crescent, 17% of the Moon is Illuminated
Jul 12
Waxing Crescent
Jul 15
First Quarter
Jul 22
Full
Jul 29
Last Quarter
Aug 6
New

Hourly Weather History & Observations

Time (CDT) Temp. Heat Index Dew Point Humidity Pressure Visibility Wind Dir Wind Speed Gust Speed Precip Events Conditions
12:53 AM 73.9 °F - 66.0 °F 76% 29.73 in 10.0 mi SE 8.1 mph - N/A   Clear
1:53 AM 73.0 °F - 64.9 °F 76% 29.71 in 10.0 mi SSE 10.4 mph - N/A   Clear
2:53 AM 73.9 °F - 64.9 °F 73% 29.70 in 10.0 mi SSE 10.4 mph - N/A   Clear
3:53 AM 73.9 °F - 64.0 °F 71% 29.68 in 10.0 mi SSE 13.8 mph - N/A   Clear
4:53 AM 73.0 °F - 64.9 °F 76% 29.70 in 10.0 mi SSE 8.1 mph - N/A   Clear
5:53 AM 73.0 °F - 64.0 °F 73% 29.68 in 10.0 mi South 13.8 mph - N/A   Mostly Cloudy
6:53 AM 73.0 °F - 64.9 °F 76% 29.67 in 10.0 mi SSE 13.8 mph - N/A   Mostly Cloudy
7:53 AM 73.0 °F - 64.9 °F 76% 29.67 in 10.0 mi SSE 12.7 mph - N/A   Overcast
8:53 AM 75.0 °F - 66.0 °F 73% 29.67 in 10.0 mi South 15.0 mph 23.0 mph N/A   Overcast
9:53 AM 77.0 °F - 66.0 °F 69% 29.66 in 10.0 mi South 13.8 mph 24.2 mph N/A   Overcast
10:53 AM 80.1 °F 82.3 °F 66.9 °F 64% 29.65 in 10.0 mi South 18.4 mph 27.6 mph N/A   Mostly Cloudy
11:53 AM 82.0 °F 85.5 °F 69.1 °F 65% 29.67 in 10.0 mi SSW 11.5 mph - N/A   Mostly Cloudy
12:53 PM 82.0 °F 85.9 °F 70.0 °F 67% 29.68 in 10.0 mi SW 5.8 mph - N/A   Overcast
1:53 PM 84.9 °F 89.4 °F 70.0 °F 61% 29.68 in 10.0 mi WSW 9.2 mph - N/A   Overcast
2:53 PM 82.0 °F 86.3 °F 71.1 °F 69% 29.68 in 10.0 mi West 3.5 mph - N/A   Overcast
3:53 PM 78.1 °F - 69.1 °F 74% 29.72 in 10.0 mi NNW 13.8 mph 19.6 mph N/A   Overcast
4:48 PM 71.6 °F - 69.8 °F 94% 29.75 in 4.0 mi NNW 11.5 mph - 0.00 in Rain , Thunderstorm Heavy Thunderstorms and Rain
4:51 PM 71.6 °F - 69.8 °F 94% 29.77 in 1.5 mi WNW 16.1 mph 20.7 mph 0.02 in Rain , Thunderstorm Heavy Thunderstorms and Rain
4:53 PM 71.1 °F - 70.0 °F 96% 29.83 in 0.5 mi WNW 21.9 mph 38.0 mph 0.08 in Fog , Rain , Thunderstorm Heavy Thunderstorms and Rain
4:56 PM 71.6 °F - 68.0 °F 88% 29.71 in 0.2 mi ENE 25.3 mph 38.0 mph 0.10 in Fog , Rain , Thunderstorm Heavy Thunderstorms and Rain
5:08 PM 73.4 °F - 69.8 °F 88% 29.73 in 4.0 mi Variable 3.5 mph - 0.96 in Rain Light Rain
5:53 PM 73.0 °F - 71.1 °F 93% 29.72 in 10.0 mi North 5.8 mph - 0.96 in   Overcast
6:53 PM 77.0 °F - 71.1 °F 82% 29.72 in 10.0 mi Calm Calm - N/A   Mostly Cloudy
7:53 PM 75.9 °F - 72.0 °F 87% 29.72 in 10.0 mi WNW 3.5 mph - N/A   Scattered Clouds
8:53 PM 73.9 °F - 71.1 °F 91% 29.74 in 10.0 mi NNW 4.6 mph - N/A   Mostly Cloudy
9:53 PM 71.1 °F - 70.0 °F 96% 29.75 in 7.0 mi NW 3.5 mph - N/A   Partly Cloudy
10:53 PM 69.1 °F - 68.0 °F 96% 29.78 in 6.0 mi Calm Calm - N/A   Partly Cloudy
11:07 PM 68.0 °F - 68.0 °F 100% 29.79 in 1.8 mi Calm Calm - N/A   Partly Cloudy
11:17 PM 66.2 °F - 66.2 °F 100% 29.79 in 2.0 mi Calm Calm - N/A   Partly Cloudy
11:36 PM 68.0 °F - 66.2 °F 94% 29.80 in 0.5 mi Calm Calm - N/A Fog Fog
11:46 PM 68.0 °F - 68.0 °F 100% 29.81 in 0.5 mi Calm Calm - N/A Fog Fog
11:53 PM 68.0 °F - 68.0 °F 100% 29.81 in 0.2 mi Calm Calm - N/A Fog Fog